• In Netherlands
  • List of Countries
  • For 7 days
  • Water Temperature
  • Satellite Maps
  • Weather Map
  • Weather Widgets
  • user-avatar
    Login

    Hourly Weather Sidi Bu-l-Abbas

    Today, 21 January, Saturday

    Time Temperature Precipitation Wind Pressure Humidity
    00:00 +4°C° 0.1 mm 2 mps 718 mmHg 95%
    01:00 +3°C° 0.2 mm 3 mps 718 mmHg 95%
    02:00 +3°C° 0.2 mm 3 mps 718 mmHg 95%
    03:00 +3°C° 0.2 mm 3 mps 718 mmHg 95%
    04:00 +4°C° 0.4 mm 4 mps 718 mmHg 94%
    05:00 +4°C° 0.4 mm 4 mps 718 mmHg 94%
    06:00 +4°C° 0.4 mm 4 mps 718 mmHg 93%
    07:00 +3°C° 0.5 mm 5 mps 718 mmHg 91%
    08:00 +5°C° 0.5 mm 5 mps 718 mmHg 89%
    09:00 +4°C° 0.5 mm 6 mps 718 mmHg 87%
    10:00 +4°C° 0.3 mm 7 mps 718 mmHg 85%
    11:00 +5°C° 0.3 mm 7 mps 718 mmHg 84%
    12:00 +5°C° 0.3 mm 8 mps 718 mmHg 83%
    13:00 +5°C° 0.9 mm 8 mps 717 mmHg 84%
    14:00 +5°C° 0.9 mm 9 mps 717 mmHg 86%
    15:00 +3°C° 0.9 mm 9 mps 716 mmHg 87%
    16:00 +3°C° 2 mm 9 mps 716 mmHg 89%
    17:00 +3°C° 2 mm 9 mps 716 mmHg 91%
    18:00 +3°C° 2 mm 9 mps 716 mmHg 92%
    19:00 +3°C° 3.7 mm 9 mps 716 mmHg 94%
    20:00 +3°C° 3.7 mm 9 mps 716 mmHg 95%
    21:00 +3°C° 3.7 mm 9 mps 716 mmHg 96%
    22:00 +3°C° 5.6 mm 9 mps 716 mmHg 95%
    23:00 +5°C° 5.6 mm 9 mps 716 mmHg 95%

    Tomorrow, 22 January, Sunday

    Time Temperature Precipitation Wind Pressure Humidity
    00:00 +5°C° 5.6 mm 8 mps 716 mmHg 94%
    01:00 +5°C° 3.7 mm 8 mps 717 mmHg 94%
    02:00 +5°C° 3.7 mm 8 mps 717 mmHg 93%
    03:00 +5°C° 3.7 mm 8 mps 717 mmHg 93%
    04:00 +5°C° 1.8 mm 8 mps 717 mmHg 92%
    05:00 +5°C° 1.8 mm 7 mps 717 mmHg 91%
    06:00 +5°C° 1.8 mm 7 mps 718 mmHg 90%
    07:00 +5°C° 0.8 mm 6 mps 718 mmHg 89%
    08:00 +5°C° 0.8 mm 6 mps 719 mmHg 89%
    09:00 +6°C° 0.8 mm 5 mps 719 mmHg 88%
    10:00 +5°C° 0.6 mm 6 mps 720 mmHg 87%
    11:00 +7°C° 0.6 mm 6 mps 720 mmHg 85%
    12:00 +6°C° 0.6 mm 7 mps 720 mmHg 84%
    13:00 +6°C° 0.4 mm 7 mps 720 mmHg 82%
    14:00 +8°C° 0.4 mm 7 mps 720 mmHg 80%
    15:00 +8°C° 0.4 mm 7 mps 720 mmHg 78%
    16:00 +7°C° 0.4 mm 6 mps 720 mmHg 82%
    17:00 +6°C° 0.4 mm 5 mps 720 mmHg 86%
    18:00 +5°C° 0.4 mm 4 mps 720 mmHg 90%
    19:00 +5°C° 0.4 mm 3 mps 720 mmHg 90%
    20:00 +5°C° 0.4 mm 3 mps 721 mmHg 91%
    21:00 +4°C° 0.4 mm 3 mps 721 mmHg 91%
    22:00 +4°C° 0.4 mm 3 mps 721 mmHg 91%
    23:00 +4°C° 0.4 mm 4 mps 721 mmHg 91%

    Day after tomorrow, 23 January, Monday

    Time Temperature Precipitation Wind Pressure Humidity
    00:00 +4°C° 0.4 mm 4 mps 721 mmHg 91%
    01:00 +4°C° 0.3 mm 4 mps 721 mmHg 91%
    02:00 +4°C° 0.3 mm 4 mps 721 mmHg 91%
    03:00 +4°C° 0.3 mm 4 mps 721 mmHg 91%
    04:00 +4°C° 0.3 mm 4 mps 721 mmHg 90%
    05:00 +4°C° 0.3 mm 4 mps 721 mmHg 90%
    06:00 +4°C° 0.3 mm 4 mps 721 mmHg 89%
    07:00 +4°C° 0.1 mm 4 mps 721 mmHg 85%
    08:00 +5°C° 0.1 mm 4 mps 721 mmHg 82%
    09:00 +6°C° 0.1 mm 4 mps 722 mmHg 78%
    10:00 +7°C° 0.1 mm 5 mps 722 mmHg 75%
    11:00 +8°C° 0.1 mm 5 mps 722 mmHg 72%
    12:00 +9°C° 0.1 mm 6 mps 722 mmHg 69%
    13:00 +9°C° 0.3 mm 6 mps 722 mmHg 70%
    14:00 +9°C° 0.3 mm 6 mps 721 mmHg 71%
    15:00 +8°C° 0.3 mm 6 mps 721 mmHg 72%
    16:00 +7°C° 0.3 mm 5 mps 721 mmHg 77%
    17:00 +6°C° 0.3 mm 4 mps 721 mmHg 83%
    18:00 +5°C° 0.3 mm 3 mps 722 mmHg 89%
    19:00 +5°C° 0.1 mm 2 mps 722 mmHg 90%
    20:00 +5°C° 0.1 mm 2 mps 722 mmHg 90%
    21:00 +4°C° 0.1 mm 2 mps 723 mmHg 91%
    22:00 +4°C° 0 mm 2 mps 723 mmHg 91%
    23:00 +3°C° 0 mm 3 mps 723 mmHg 91%

    24 January, Tuesday

    Time Temperature Precipitation Wind Pressure Humidity
    00:00 +3°C° 0 mm 3 mps 723 mmHg 91%
    01:00 +3°C° 0 mm 3 mps 723 mmHg 91%
    02:00 +3°C° 0 mm 3 mps 723 mmHg 91%
    03:00 +3°C° 0 mm 3 mps 723 mmHg 91%
    04:00 +3°C° 0 mm 3 mps 723 mmHg 91%
    05:00 +3°C° 0 mm 3 mps 723 mmHg 91%
    06:00 +3°C° 0 mm 3 mps 723 mmHg 91%
    07:00 +4°C° 0 mm 4 mps 724 mmHg 88%
    08:00 +5°C° 0 mm 4 mps 724 mmHg 85%
    09:00 +6°C° 0 mm 4 mps 725 mmHg 82%
    10:00 +7°C° 0.1 mm 5 mps 725 mmHg 78%
    11:00 +8°C° 0.1 mm 5 mps 725 mmHg 75%
    12:00 +8°C° 0.1 mm 5 mps 725 mmHg 72%
    13:00 +8°C° 0.1 mm 5 mps 724 mmHg 72%
    14:00 +8°C° 0.1 mm 5 mps 724 mmHg 72%
    15:00 +8°C° 0.1 mm 5 mps 724 mmHg 72%
    16:00 +7°C° 0 mm 5 mps 724 mmHg 76%
    17:00 +6°C° 0 mm 4 mps 724 mmHg 80%
    18:00 +5°C° 0 mm 3 mps 724 mmHg 84%
    19:00 +4°C° 0 mm 3 mps 724 mmHg 83%
    20:00 +4°C° 0 mm 3 mps 725 mmHg 82%
    21:00 +4°C° 0 mm 3 mps 725 mmHg 81%
    22:00 +4°C° 0 mm 3 mps 725 mmHg 80%
    23:00 +4°C° 0 mm 3 mps 725 mmHg 79%

    25 January, Wednesday

    Time Temperature Precipitation Wind Pressure Humidity
    00:00 +3°C° 0 mm 3 mps 725 mmHg 78%
    01:00 +3°C° 0 mm 3 mps 725 mmHg 78%
    02:00 +3°C° 0 mm 3 mps 725 mmHg 77%
    03:00 +3°C° 0 mm 3 mps 725 mmHg 77%
    04:00 +3°C° 0 mm 3 mps 725 mmHg 77%
    05:00 +4°C° 0 mm 2 mps 725 mmHg 77%
    06:00 +4°C° 0 mm 2 mps 725 mmHg 77%
    07:00 +5°C° 0 mm 2 mps 726 mmHg 74%
    08:00 +7°C° 0 mm 2 mps 726 mmHg 71%
    09:00 +8°C° 0 mm 2 mps 727 mmHg 68%
    10:00 +9°C° 0 mm 2 mps 727 mmHg 63%
    11:00 +12°C° 0 mm 1 mps 726 mmHg 57%
    12:00 +13°C° 0 mm 1 mps 726 mmHg 52%
    13:00 +13°C° 0 mm 1 mps 726 mmHg 51%
    14:00 +14°C° 0 mm 1 mps 726 mmHg 49%
    15:00 +14°C° 0 mm 1 mps 725 mmHg 48%
    16:00 +12°C° 0 mm 1 mps 725 mmHg 57%
    17:00 +9°C° 0 mm 2 mps 725 mmHg 65%
    18:00 +7°C° 0 mm 2 mps 725 mmHg 73%
    19:00 +6°C° 0 mm 2 mps 725 mmHg 73%
    20:00 +6°C° 0 mm 2 mps 725 mmHg 73%
    21:00 +5°C° 0 mm 3 mps 725 mmHg 73%
    22:00 +4°C° 0 mm 3 mps 725 mmHg 72%
    23:00 +4°C° 0 mm 3 mps 725 mmHg 71%

    26 January, Thursday

    Time Temperature Precipitation Wind Pressure Humidity
    00:00 +3°C° 0 mm 3 mps 725 mmHg 69%
    01:00 +3°C° 0 mm 3 mps 725 mmHg 69%
    02:00 +3°C° 0 mm 3 mps 724 mmHg 68%
    03:00 +3°C° 0 mm 3 mps 724 mmHg 67%
    04:00 +4°C° 0 mm 2 mps 724 mmHg 67%
    05:00 +3°C° 0 mm 2 mps 724 mmHg 66%
    06:00 +3°C° 0 mm 2 mps 724 mmHg 66%
    07:00 +5°C° 0 mm 2 mps 724 mmHg 62%
    08:00 +6°C° 0 mm 2 mps 724 mmHg 59%
    09:00 +8°C° 0 mm 2 mps 725 mmHg 55%
    10:00 +9°C° 0 mm 2 mps 725 mmHg 50%
    11:00 +12°C° 0 mm 2 mps 725 mmHg 45%
    12:00 +14°C° 0 mm 2 mps 724 mmHg 40%
    13:00 +15°C° 0 mm 2 mps 724 mmHg 40%
    14:00 +15°C° 0 mm 2 mps 724 mmHg 40%
    15:00 +15°C° 0 mm 2 mps 723 mmHg 40%
    16:00 +13°C° 0 mm 2 mps 723 mmHg 50%
    17:00 +10°C° 0 mm 2 mps 723 mmHg 59%
    18:00 +7°C° 0 mm 2 mps 723 mmHg 69%
    19:00 +7°C° 0 mm 2 mps 723 mmHg 67%
    20:00 +7°C° 0 mm 2 mps 724 mmHg 66%
    21:00 +7°C° 0 mm 2 mps 724 mmHg 65%
    22:00 +6°C° 0 mm 2 mps 724 mmHg 65%
    23:00 +6°C° 0 mm 2 mps 724 mmHg 64%
    Show more